Regional Weather Roundup
Issued by NWS Newport/Morehead, NC

Current Version | Previous Version | Text Only | Print | Product List | Glossary On
Versions: 1 2 3 4 5 6 7 8 9 10 11 12 13 14 15 16 17 18 19 20 21 22 23 24 25 26 27 28 29 30 31 32 33 34 35 36 37 38 39 40 41 42 43 44 45 46 47 48 49 50
000
ASUS42 KMHX 281525
RWRMHX
WEATHER ROUNDUP FOR EASTERN NORTH CAROLINA
NATIONAL WEATHER SERVICE NEWPORT/MOREHEAD CITY NC
1100 AM EDT THU MAY 28 2015

NOTE: "FAIR" INDICATES FEW OR NO CLOUDS BELOW 12,000 FEET
WITH NO SIGNIFICANT WEATHER AND/OR OBSTRUCTIONS TO VISIBILITY

NCZ015>017-031-032-045>047-102-103-281600-
NORTH COAST

CITY           SKY/WX    TMP DP  RH WIND       PRES   REMARKS
EDENTON        MOSUNNY   78  68  71 S9        30.24F
ELIZABETH CITY SUNNY     79  68  69 S12       30.24F
KITTY HAWK     CLOUDY    77  65  65 S6        30.25F
MANTEO         PTSUNNY   77  64  65 S10G16    30.26F

$$

NCZ045>047-081-094-103-104-281600-
CENTRAL COAST

CITY           SKY/WX    TMP DP  RH WIND       PRES   REMARKS
FRISCO         CLOUDY    77  59  53 S6        30.28R
SWANQUARTER      N/A     79 N/A N/A S7        30.24S

$$

NCZ095-097-098-100-101-281600-
SOUTHERN COAST

CITY           SKY/WX    TMP DP  RH WIND       PRES   REMARKS
BEAUFORT       PTSUNNY   77  64  64 SE9       30.27R
CEDAR ISLAND     N/A     77 N/A N/A SE9       30.30S
JACKSONVILLE   PTSUNNY   79  63  57 E5        30.25F
PINEY ISLAND   CLOUDY   N/A N/A N/A SE8       30.27R
WILMINGTON     SUNNY     79  62  56 E3        30.25S


$$

NCZ011>013-027>030-043-044-078>080-089-090>093-098-281600-
COASTAL PLAIN

CITY           SKY/WX    TMP DP  RH WIND       PRES   REMARKS
AHOSKIE        PTSUNNY   76  68  75 CALM      30.24S
CLINTON        MOSUNNY   80  70  71 S5        30.26S
ELIZABETHTOWN  MOSUNNY   78  65  63 SE5       30.26S
GOLDSBORO      PTSUNNY   79  66  65 CALM      30.23S
GREENVILLE     PTSUNNY   81  68  65 S3        30.25S
HAVELOCK       PTSUNNY   79  62  56 CALM      30.27S
KENANSVILLE    MOSUNNY   78  64  61 CALM      30.26S
KINSTON        MOSUNNY   79  66  65 S5        30.25F
NEW BERN       PTSUNNY   81  64  56 SE6       30.27S
RICHLANDS      MOSUNNY   82  64  54 S6        30.25F
ROCKY MOUNT    PTSUNNY   79  71  76 S6        30.24F
WASHINGTON     SUNNY     79  67  66 S3        30.25F
WHITEVILLE     MOSUNNY   79  65  60 SE5       30.25S

$$

AMZ130-135-150-152-154-156-158-170-250-252-270-ANZ085-086-088-633-658-670-281600-
MARINE OBSERVATIONS

STATION/POSITION TIME  TEMP    WIND        PRES    WAVE   SWELL
                       AIR SEA DIR/SP/G            HT/PER HT/PER
                 (UTC) (F)     (DEG/KT/KT) (MB)    (FT/S) (FT/S)
CHESAPEAKE LIGHT 1500   66     180/ 20/ 20 1023.8
64 E VA BEACH    1450   66 64  170/  8/  8 1024.6    3/ 8   3/ 8
DUCK             1500   74 54  200/ 10/ 12 1023.6
2 E DUCK         1411      61                N/A     2/ 7
OREGON INLET     1500   74 76  180/  8/ 11 1025.1
13E OREGON INLT  1500      70                N/A     3/ 7
HATTERAS CG      1500   76 74  160/  5/  6 1024.9
DIAMOND BUOY     1450   75 77  180/  4/  6 1025.3    2/ 8   2/ 8
CAPE LOOKOUT     1500   74     120/  8/  8 1024.8
BEAUFORT LAB     1500   75 75  180/  6/  9 1024.3
27 SE WRIGHTSVLE 1500      76  120/  4/  6   N/A
5 SE WRIGHTSVLE  1408   76 77  150/  4/  6 1024.7
225 S CAPE HAT   1450   74 74   60/ 12/ 16 1023.7    5/ 8   5/ 8
41 SE CHARLESTON 1450   76 78   90/  8/ 10 1023.5    3/ 8   3/ 8

$$


USA.gov is the U.S. government's official web portal to all federal, state and local government web resources and services.